Theta_e
311 311 311 311 310 311 313 315 314 313 316 314 322 321 321 322 320 321 321 321 321 324 324 324 324 324 323 323 323 322 323 324
312 311 310 312 312 312 312 315 313 315 314 314 319 320 320 321 321 321 321 322 321 323 324 326 326 325 325 325 323 321 320 323
312 311 310 309 310 312 314 314 311 314 313 316 319 319 320 322 322 320 321 321 322 323 324 325 325 325 327 325 324 325 323 321
313 313 311 310 311 313 315 314 310 314 313 313 319 319 324 322 322 319 322 321 321 321 322 323 322 325 309 313 322 325 325 324
313 314 313 311 311 314 314 313 311 314 313 314 315 315 322 319 320 318 319 316 315 316 316 316 315 318 307 310 315 325 325 324
314 315 314 312 312 313 314 312 312 315 313 315 313 315 322 317 316 317 317 314 314 312 312 311 312 314 305 307 311 326 325 323
315 316 315 312 312 313 314 311 310 314 314 314 313 314 320 318 315 316 315 314 312 312 311 309 309 307 303 304 317 322 322 319
315 316 314 313 313 313 314 310 308 312 314 315 314 313 318 319 315 316 316 314 313 313 311 309 307 303 301 305 314 319 315 313
316 316 313 314 314 314 313 310 308 310 314 316 314 313 316 320 318 318 318 317 315 311 310 308 308 304 299 301 305 314 313 309
317 316 314 314 315 315 314 310 311 311 312 313 314 313 318 322 320 318 319 317 315 313 310 307 307 305 299 297 301 304 305 310
318 317 314 314 315 316 314 314 312 312 311 310 310 314 317 323 321 319 317 318 316 314 313 309 310 306 299 295 296 298 301 307
319 317 314 314 315 316 315 316 315 313 310 309 308 314 320 323 323 322 320 317 316 315 314 311 311 308 300 294 298 300 300 304
319 317 316 316 316 316 316 318 317 314 311 310 310 315 321 321 322 321 320 319 318 315 315 315 312 310 306 296 296 300 300 301
319 319 318 318 317 316 317 319 318 315 313 312 311 316 320 321 318 308 295 301 302 303 303 310 313 308 299 295 293 296 295 294
320 320 320 319 319 317 319 320 319 316 315 314 311 315 319 318 318 316 311 302 296 298 298 300 302 305 297 295 293 294 293 296
322 323 321 321 320 319 321 321 320 317 317 306 312 316 318 318 319 318 316 311 308 303 295 296 296 297 297 295 292 295 298 299
323 324 323 323 322 321 322 321 320 318 318 314 313 314 317 316 318 317 316 312 311 305 299 295 292 291 292 292 293 301 303 307
322 321 324 324 324 324 324 322 320 319 318 309 311 313 314 316 316 315 314 313 310 308 304 303 294 296 298 297 298 302 302 305
320 320 324 326 325 327 326 323 321 320 320 314 309 315 313 315 315 314 314 313 312 309 309 304 293 301 301 302 301 302 302 302
322 322 322 323 326 326 327 325 323 323 321 316 315 316 316 314 313 314 313 312 312 311 310 303 290 303 303 303 304 306 306 304
Wind_Speed
11 9 10 10 8 7 7 7 7 6 5 6 5 6 6 6 5 5 5 6 6 6 5 5 6 7 8 6 7 8 9 8
14 11 10 10 10 8 7 7 7 7 7 6 7 6 6 5 5 5 6 5 6 6 5 5 5 6 7 7 7 6 6 6
16 14 12 10 8 8 7 7 7 7 7 7 7 6 5 6 6 5 6 5 5 5 6 6 6 6 6 8 7 7 6 7
17 16 14 13 12 11 9 7 8 7 8 7 7 4 6 6 7 6 6 5 4 5 6 6 5 4 12 10 8 7 5 6
18 18 16 14 13 13 11 8 8 9 8 7 7 5 6 7 7 5 7 6 5 6 6 6 5 6 13 14 12 5 4 6
18 16 15 14 12 12 11 9 11 11 8 8 7 6 6 7 7 7 5 5 6 5 6 6 6 3 8 13 13 10 6 5
18 17 17 14 14 13 13 11 12 12 11 9 7 7 6 7 7 8 6 6 4 4 5 7 7 3 7 11 10 7 7 6
17 16 15 15 15 13 14 13 13 14 12 12 8 8 7 8 8 8 5 5 6 5 5 5 8 5 6 10 8 5 5 4
14 16 18 19 15 15 14 14 15 14 14 12 9 8 9 8 7 5 7 6 6 6 6 4 6 6 5 10 11 5 6 5
16 16 15 15 16 16 15 16 15 11 13 13 11 9 9 7 10 5 6 7 7 6 5 4 2 4 6 8 11 10 7 7
17 17 15 13 17 18 17 15 14 13 11 13 12 10 8 10 11 7 5 6 6 5 5 4 4 3 3 6 9 11 10 5
16 15 16 16 15 17 17 15 15 14 12 11 10 11 9 10 9 9 8 6 5 5 5 6 4 4 4 3 3 3 6 5
16 16 16 17 17 16 14 15 16 15 11 10 11 10 12 10 9 9 10 9 10 7 7 8 7 5 6 10 9 5 5 5
15 16 16 16 17 16 15 16 15 15 11 10 10 10 9 10 9 4 9 2 11 11 13 9 5 10 15 16 14 11 13 16
17 18 18 16 17 16 16 17 16 15 14 11 9 10 10 10 9 9 8 3 5 6 9 13 13 13 15 18 18 14 17 9
18 17 16 16 16 17 17 17 16 14 12 16 12 11 10 10 10 10 8 8 7 3 1 4 11 13 17 18 16 12 3 2
16 16 17 16 16 15 16 17 16 14 12 11 12 11 11 11 10 9 9 8 7 5 3 2 6 8 8 6 21 10 10 9
16 14 15 16 16 15 16 17 15 11 12 15 13 11 9 10 9 10 8 8 8 7 6 7 5 4 4 6 9 9 10 10
12 13 15 15 17 14 16 17 17 12 10 10 14 11 11 12 11 10 10 10 9 8 9 9 13 8 8 10 11 11 10 11
9 7 5 15 13 12 15 17 17 12 10 11 11 12 11 10 11 10 10 10 10 9 8 6 12 8 7 9 11 13 13 9
Wind_Direction
157 152 163 163 167 169 168 163 180 167 161 123 134 133 134 136 140 144 129 132 134 127 125 124 124 124 117 116 115 111 126 134
165 163 167 165 171 173 175 175 170 166 151 128 138 164 148 137 132 133 134 134 128 130 135 130 122 122 124 118 117 111 106 117
174 171 172 169 170 175 180 174 154 161 146 139 162 180 136 140 138 139 131 133 137 143 137 127 129 132 131 131 126 122 124 113
179 178 173 175 175 180 182 170 157 155 151 159 171 175 157 169 136 140 124 134 127 120 127 128 122 126 137 117 124 117 127 127
178 183 182 177 175 176 180 166 151 157 157 166 163 157 142 164 141 142 130 120 110 120 127 122 113 130 137 130 123 130 110 111
185 182 182 179 169 173 171 145 160 161 163 168 168 155 153 132 136 156 128 128 133 127 125 120 121 133 151 145 144 153 143 144
183 183 181 172 169 171 164 156 158 164 171 170 175 160 162 133 132 141 135 125 124 130 132 128 124 108 176 155 135 132 138 151
179 178 173 171 174 163 161 166 162 170 173 177 174 163 160 154 151 144 150 145 147 141 144 141 132 120 148 156 132 130 130 133
175 165 172 181 166 160 167 169 178 174 174 175 171 171 164 164 161 147 142 145 139 145 152 164 141 135 111 135 140 142 147 148
171 174 175 171 168 166 166 177 179 169 165 172 178 178 170 162 161 160 151 136 143 160 157 167 196 159 153 120 144 136 144 145
176 175 169 170 173 173 171 182 170 174 163 172 176 173 165 161 165 163 149 158 147 163 170 184 197 179 161 149 137 147 161 143
173 166 170 171 180 180 181 166 174 171 173 171 165 165 164 166 173 168 169 171 163 160 171 183 196 171 171 182 168 139 135 103
167 173 175 179 177 181 174 173 172 175 170 168 167 169 171 170 173 175 180 194 181 174 185 181 175 190 205 178 171 178 178 148
173 178 176 177 178 179 176 176 175 171 168 168 171 168 169 170 161 136 34 143 189 181 169 168 202 196 165 177 183 173 150 148
176 179 184 177 180 180 181 178 175 173 175 168 165 168 169 165 172 174 175 32 89 199 200 194 183 190 184 177 182 172 162 144
178 178 177 176 178 182 182 177 178 178 172 164 167 172 174 172 176 180 177 182 188 198 100 199 218 203 188 186 167 119 127 282
174 172 176 175 182 186 179 179 176 172 166 173 172 175 176 176 175 176 179 183 190 168 137 113 75 85 99 127 159 181 187 202
156 175 176 179 186 184 177 179 178 171 179 174 171 173 170 176 178 177 180 187 192 189 188 197 139 123 154 165 189 199 194 201
157 175 178 177 191 178 178 180 177 182 177 172 169 169 179 185 184 188 189 188 193 196 203 188 179 175 183 183 187 201 204 206
116 99 166 178 185 174 181 183 182 180 177 171 178 180 182 188 192 189 191 190 196 198 208 189 181 203 184 188 195 202 200 195